Location: Chipmunk Meadow
(41.1540°N, 122.8814°W)
Time: 13:45:39
(UTC+00:00)

Cosmos 1656 Rocket - Pass Details

Date: 13 April 2024
Orbit: 796 x 844 km, 71.1° (Epoch: 22 May)

Event Time Altitude Azimuth Distance (km) Brightness Sun altitude
Rises 12:53:54 0° 338° (NNW) 3,310 6.8 -8.1°
Reaches altitude 10° 12:56:20 10° 341° (NNW) 2,374 6.1 -7.7°
Maximum altitude 13:01:43 68° 65° (ENE) 859 4.1 -6.7°
Drops below altitude 10° 13:07:06 10° 148° (SSE) 2,364 6.2 -5.8°
Sets 13:09:31 0° 151° (SSE) 3,294 6.9 -5.3°
